Weather History for Prague, Czech Republic

Change the Weather History Date:

Wednesday, April 16, 2014

  Actual Average Record
Temperature  
Mean Temperature 43 °F -  
Max Temperature 50 °F 61 °F 71 °F (2009)
Min Temperature 36 °F 41 °F 28 °F (1997)
Degree Days  
Heating Degree Days 22    
Moisture  
Dew Point 30 °F    
Average Humidity 64    
Maximum Humidity 93    
Minimum Humidity 26    
Precipitation  
Precipitation 0.00 in 0.08 in - ()
Sea Level Pressure  
Sea Level Pressure 30.32 in    
Wind  
Wind Speed 10 mph ()    
Max Wind Speed 18 mph    
Max Gust Speed -    
Visibility 7.2 miles    
Events Rain    
Averages and records for this station are not official NWS values.
T = Trace of Precipitation, MM = Missing Value Source: Averaged Metar Reports

Daily Weather History Graph

Daily Weather History Graph

Search for Another Location

Airport:

Trip Planner

Search our weather history database for the weather conditions in past years. The results will help you decide how hot, cold, wet, or windy it might be!

Date:

Astronomy

Apr. 16, 2014 Rise Set
Actual Time 6:08 AM CEST 7:58 PM CEST
Civil Twilight 5:34 AM CEST 8:32 PM CEST
Nautical Twilight 4:51 AM CEST 9:15 PM CEST
Astronomical Twilight 4:04 AM CEST 10:02 PM CEST
Moon 9:31 PM CEST (4/16) 6:39 AM CEST (4/16)
Length of Visible Light 14h 58m
Length of Day
13h 49m
Full, 99% of the Moon is Illuminated
Apr 16
Full
Apr 22
Last Quarter
Apr 29
New
May 7
First Quarter
May 14
Full

Hourly Weather History & Observations

Time (CEST) Temp. Windchill Dew Point Humidity Pressure Visibility Wind Dir Wind Speed Gust Speed Precip Events Conditions
12:00 AM 39 °F - 34 °F 76% 30.25 in 22 mi NW 8.9 mph - - Rain Light Rain
12:00 AM 39.2 °F 33.0 °F 33.8 °F 81% 30.18 in 6.2 mi WNW 9.2 mph - N/A   Overcast
12:30 AM 39.2 °F 32.5 °F 33.8 °F 81% 30.18 in 6.2 mi WNW 10.4 mph - N/A Rain Light Rain
1:00 AM 38 °F - 34 °F 79% 30.26 in 22 mi NW 8.9 mph - - Rain Light Rain
1:00 AM 37.4 °F 30.3 °F 33.8 °F 87% 30.21 in 6.2 mi WNW 10.4 mph - N/A   Mostly Cloudy
1:30 AM 39.2 °F 33.6 °F 33.8 °F 81% 30.21 in 6.2 mi WNW 8.1 mph - N/A   Mostly Cloudy
2:00 AM 38 °F - 34 °F 78% 30.27 in 22 mi NW 8.9 mph - -   Partly Cloudy
2:00 AM 39.2 °F 33.6 °F 33.8 °F 81% 30.21 in 6.2 mi WNW 8.1 mph - N/A   Mostly Cloudy
2:30 AM 37.4 °F 30.8 °F 33.8 °F 87% 30.21 in 6.2 mi WNW 9.2 mph - N/A   Mostly Cloudy
3:00 AM 38 °F - 34 °F 80% 30.28 in 22 mi NW 8.9 mph - -   Mostly Cloudy
3:00 AM 39.2 °F 33.6 °F 33.8 °F 81% 30.21 in 6.2 mi WNW 8.1 mph - N/A   Mostly Cloudy
3:17 AM 37.4 °F 30.8 °F 33.8 °F 87% 30.21 in 6.2 mi NW 9.2 mph - N/A   Mostly Cloudy
3:30 AM 37.4 °F 30.3 °F 33.8 °F 87% 30.21 in 6.2 mi NW 10.4 mph - N/A   Mostly Cloudy
4:00 AM 37 °F - 33 °F 82% 30.30 in 22 mi NW 8.9 mph - -   Partly Cloudy
4:00 AM 37.4 °F 31.4 °F 33.8 °F 87% 30.24 in 6.2 mi WNW 8.1 mph - N/A   Scattered Clouds
4:13 AM 37.4 °F 30.8 °F 33.8 °F 87% 30.24 in 6.2 mi WNW 9.2 mph - N/A   Mostly Cloudy
4:30 AM 37.4 °F 30.8 °F 35.6 °F 93% 30.24 in 6.2 mi WNW 9.2 mph - N/A   Mostly Cloudy
4:48 AM 37.4 °F 30.3 °F 33.8 °F 87% 30.24 in 6.2 mi WNW 10.4 mph - N/A   Scattered Clouds
5:00 AM 38 °F - 35 °F 82% 30.31 in 19 mi NW 11.2 mph - -   Mostly Cloudy
5:00 AM 37.4 °F 30.8 °F 33.8 °F 87% 30.24 in 6.2 mi NW 9.2 mph - N/A   Mostly Cloudy
5:30 AM 37.4 °F 31.4 °F 35.6 °F 93% 30.24 in 6.2 mi NW 8.1 mph - N/A   Mostly Cloudy
6:00 AM 38 °F - 35 °F 84% 30.32 in 12 mi NNW 11.2 mph - -   Mostly Cloudy
6:00 AM 37.4 °F 31.4 °F 35.6 °F 93% 30.27 in 6.2 mi NW 8.1 mph - N/A   Mostly Cloudy
6:30 AM 37.4 °F 30.8 °F 35.6 °F 93% 30.27 in 6.2 mi NNW 9.2 mph - N/A   Mostly Cloudy
7:00 AM 39 °F - 35 °F 82% 30.35 in 16 mi NNW 11.2 mph - -   Mostly Cloudy
7:00 AM 39.2 °F 32.0 °F 35.6 °F 87% 30.30 in 6.2 mi NW 11.5 mph - N/A   Mostly Cloudy
7:30 AM 39.2 °F 32.0 °F 35.6 °F 87% 30.30 in 6.2 mi NNW 11.5 mph - N/A   Mostly Cloudy
8:00 AM 40 °F - 35 °F 78% 30.35 in 16 mi North 11.2 mph - -   Mostly Cloudy
8:00 AM 39.2 °F 33.0 °F 35.6 °F 87% 30.30 in 6.2 mi North 9.2 mph - N/A   Mostly Cloudy
8:14 AM 39.2 °F 32.5 °F 35.6 °F 87% 30.30 in 6.2 mi North 10.4 mph - N/A   Mostly Cloudy
8:30 AM 39.2 °F 32.0 °F 35.6 °F 87% 30.30 in 6.2 mi North 11.5 mph - N/A   Mostly Cloudy
8:42 AM 41.0 °F 33.5 °F 35.6 °F 81% 30.33 in 6.2 mi North 13.8 mph - N/A   Mostly Cloudy
9:00 AM 40 °F - 34 °F 72% 30.38 in 31 mi North 13.4 mph - -   Mostly Cloudy
9:00 AM 41.0 °F 33.5 °F 33.8 °F 76% 30.33 in 6.2 mi North 13.8 mph - N/A   Mostly Cloudy
9:30 AM 41.0 °F 34.3 °F 33.8 °F 76% 30.33 in 6.2 mi NNW 11.5 mph - N/A   Mostly Cloudy
10:00 AM 41 °F - 35 °F 70% 30.39 in 37 mi North 13.4 mph - -   Mostly Cloudy
10:00 AM 41.0 °F 33.1 °F 33.8 °F 76% 30.33 in 6.2 mi North 15.0 mph - N/A   Mostly Cloudy
10:30 AM 41.0 °F 33.9 °F 32.0 °F 70% 30.33 in 6.2 mi North 12.7 mph - N/A   Mostly Cloudy
11:00 AM 45 °F - 35 °F 59% 30.39 in 44 mi North 17.9 mph - -   Mostly Cloudy
11:00 AM 44.6 °F 37.4 °F 35.6 °F 71% 30.36 in 6.2 mi North 16.1 mph - N/A   Scattered Clouds
11:30 AM 42.8 °F 36.2 °F 33.8 °F 70% 30.36 in 6.2 mi North 12.7 mph - N/A   Scattered Clouds
12:00 PM 44 °F - 35 °F 59% 30.40 in 44 mi North 15.7 mph - -   Mostly Cloudy
12:00 PM 46.4 °F 39.8 °F 35.6 °F 66% 30.36 in 6.2 mi North 16.1 mph - N/A   Scattered Clouds
12:30 PM 46.4 °F 40.4 °F 32.0 °F 57% 30.36 in 6.2 mi North 13.8 mph - N/A   Scattered Clouds
1:00 PM 46 °F - 32 °F 45% 30.39 in 47 mi North 11.2 mph - -   Partly Cloudy
1:00 PM 46.4 °F 40.7 °F 30.2 °F 53% 30.36 in 6.2 mi North 12.7 mph - N/A   Scattered Clouds
1:30 PM 48.2 °F - 28.4 °F 46% 30.33 in 6.2 mi North 12.7 mph - N/A   Scattered Clouds
2:00 PM 49 °F - 27 °F 30% 30.38 in 47 mi NNE 13.4 mph - -   Partly Cloudy
2:00 PM 48.2 °F - 28.4 °F 46% 30.33 in 6.2 mi North 13.8 mph - N/A   Scattered Clouds
2:30 PM 48.2 °F - 24.8 °F 40% 30.33 in - NNE 16.1 mph - N/A   Clear
3:00 PM 50 °F - 27 °F 28% 30.37 in 47 mi North 13.4 mph - -   Partly Cloudy
3:00 PM 50.0 °F - 26.6 °F 40% 30.33 in - North 15.0 mph - N/A   Clear
3:30 PM 50.0 °F - 24.8 °F 37% 30.33 in - NNE 13.8 mph - N/A   Clear
4:00 PM 47 °F - 23 °F 26% 30.38 in 47 mi NNE 13.4 mph - -   Partly Cloudy
4:00 PM 48.2 °F - 23.0 °F 37% 30.33 in - NNE 16.1 mph - N/A   Clear
4:30 PM 48.2 °F - 23.0 °F 37% 30.33 in - North 17.3 mph - N/A   Clear
5:00 PM 47 °F - 23 °F 26% 30.38 in 47 mi NNE 15.7 mph - -   Scattered Clouds
5:00 PM 46.4 °F 39.8 °F 23.0 °F 40% 30.33 in - NNE 16.1 mph - N/A   Clear
5:30 PM 50.0 °F - 24.8 °F 37% 30.33 in - North 15.0 mph - N/A   Clear
6:00 PM 48 °F - 24 °F 26% 30.38 in 47 mi NNE 17.9 mph - -   Scattered Clouds
6:00 PM 48.2 °F - 24.8 °F 40% 30.33 in - NNE 15.0 mph - N/A   Clear
6:30 PM 48.2 °F - 24.8 °F 40% 30.33 in - NNE 13.8 mph - N/A   Clear
7:00 PM 47 °F - 23 °F 26% 30.38 in 47 mi NNE 13.4 mph - -   Partly Cloudy
7:00 PM 46.4 °F 40.1 °F 23.0 °F 40% 30.33 in - NNE 15.0 mph - N/A   Clear
7:30 PM 44.6 °F 39.2 °F 23.0 °F 43% 30.36 in - North 10.4 mph - N/A   Clear
8:00 PM 43 °F - 24 °F 34% 30.40 in 47 mi North 8.9 mph - -   Scattered Clouds
8:00 PM 42.8 °F 38.0 °F 24.8 °F 49% 30.36 in - North 8.1 mph - N/A   Clear
8:30 PM 41.0 °F 35.8 °F 24.8 °F 53% 30.36 in - NNE 8.1 mph - N/A   Clear
9:00 PM 40 °F - 24 °F 40% 30.42 in 44 mi NNE 6.7 mph - -   Scattered Clouds
9:00 PM 39.2 °F 35.9 °F 24.8 °F 56% 30.36 in - NNE 4.6 mph - N/A   Clear
9:30 PM 39.2 °F 37.0 °F 24.8 °F 56% 30.36 in - North 3.5 mph - N/A   Clear
10:00 PM 38 °F - 25 °F 47% 30.43 in 44 mi NNE 6.7 mph - -   Scattered Clouds
10:00 PM 37.4 °F 32.8 °F 24.8 °F 60% 30.36 in - NNE 5.8 mph - N/A   Clear
10:30 PM 37.4 °F 32.8 °F 24.8 °F 60% 30.36 in - NNE 5.8 mph - N/A   Clear
11:00 PM 38 °F - 24 °F 46% 30.43 in 44 mi NE 8.9 mph - -   Scattered Clouds
11:00 PM 39.2 °F 35.0 °F 24.8 °F 56% 30.36 in - NNE 5.8 mph - N/A   Clear
11:30 PM 37.4 °F 32.8 °F 24.8 °F 60% 30.36 in - NNE 5.8 mph - N/A   Clear